Location: Umburanas
(4.5000°S, 37.9667°W)
Time: 12:59:36
(UTC+00:00)

Cosmos 1400 Rocket - Pass Details

Date: 19 November 2019
Orbit: 522 x 568 km, 81.2° (Epoch: 15 December)

Event Time Altitude Azimuth Distance (km) Brightness Sun altitude
Rises 20:53:29 0° 189° (S) 2,718 6.8 -7.0°
Reaches altitude 10° 20:55:39 10° 192° (SSW) 1,829 5.9 -7.5°
Maximum altitude 20:59:40 69° 275° (W) 598 3.2 -8.4°
Drops below altitude 10° 21:03:42 10° 358° (N) 1,841 5.3 -9.4°
Sets 21:05:54 0° 1° (N) 2,738 6.2 -9.9°
